Simultaneous Nadir Overpasses (SNOs) Predictions

Prediction of SNOs between LANDSAT-8 and METOP-B Satellite Orbit:

Table of predicted SNOs for the next 14.0 days since TLE Epoch: 10/15/2022
Index Date (LANDSAT-8) Time (LANDSAT-8) Lat,Lon (LANDSAT-8) SZA (LANDSAT-8 ) Date (METOP-B) Time (METOP-B) Lat,Lon (METOP-B) SZA (METOP-B ) Distance(km) Time Diff (sec)
1 10/17/2022 04:38:54 81.12, 150.18 92.72 10/17/2022 04:38:11 81.11, 150.19 92.70 0.50 43
2 10/17/2022 05:28:20 -81.14, -41.85 87.22 10/17/2022 05:28:50 -81.14, -41.66 87.18 3.33 30
3 10/20/2022 00:13:12 81.10,-143.68 93.71 10/20/2022 00:12:36 81.10,-143.87 93.67 3.25 36
4 10/20/2022 01:02:38 -81.12, 24.31 86.23 10/20/2022 01:03:15 -81.13, 24.30 86.21 0.54 37
5 10/22/2022 19:47:28 81.12, -76.98 94.75 10/22/2022 19:46:58 81.12, -76.87 94.75 1.89 30
6 10/22/2022 20:36:54 -81.14, 91.03 85.18 10/22/2022 20:37:38 -81.13, 90.95 85.17 1.42 44
7 10/25/2022 15:21:43 81.12, -10.44 95.75 10/25/2022 15:21:20 81.12, -10.31 95.76 2.28 23
8 10/25/2022 16:11:10 -81.12, 157.22 84.24 10/25/2022 16:12:01 -81.13, 157.17 84.22 1.04 51
9 10/28/2022 10:55:59 81.12, 55.94 96.70 10/28/2022 10:55:44 81.11, 55.82 96.68 2.16 15



Historial Predications of SNOs between LANDSAT-8 and METOP-B
